START_TIME,STEP,MOV.,H8,t_acc.,H43,t_acc.,M25,t_acc.,H9,t_acc.
1979-07-22 00:00:29.170 ,0,0,0.,12.0,0.,12.0,0.,12.0,0.,12.0
1979-07-22 00:00:41.170 ,0,0,0.,12.0,0.,12.0,0.,12.0,0.,12.0
1979-07-22 00:00:53.170 ,1,0,0.,12.0,0.,12.0,0.,12.0,0.,12.0
1979-07-22 00:01:05.170 ,1,0,0.,12.0,0.,12.0,0.,12.0,0.,12.0
1979-07-22 00:01:17.170 ,1,0,0.,12.0,0.,12.0,0.,12.0,0.,12.0
1979-07-22 00:01:29.170 ,1,0,0.,12.0,0.,12.0,0.,12.0,0.,12.0
1979-07-22 00:01:41.170 ,2,0,0.,12.0,0.,12.0,0.,12.0,0.,12.0
1979-07-22 00:01:53.170 ,2,0,0.,12.0,0.,12.0,0.,12.0,0.,12.0
1979-07-22 00:02:05.170 ,2,0,0.,12.0,0.,12.0,0.,12.0,0.,12.0
1979-07-22 00:02:17.170 ,2,0,0.,12.0,0.,12.0,0.,12.0,0.,12.0
1979-07-22 00:02:29.160 ,3,0,0.,12.0,0.,12.0,0.,12.0,0.,12.0
1979-07-22 00:02:41.170 ,3,0,0.,12.0,0.,12.0,0.,12.0,0.,12.0
1979-07-22 00:02:53.160 ,3,0,0.,12.0,0.,12.0,0.,12.0,0.,12.0
1979-07-22 00:03:05.160 ,3,0,0.,12.0,0.,12.0,0.,12.0,0.,12.0
1979-07-22 00:03:17.160 ,4,0,0.,12.0,0.,12.0,0.,12.0,0.,12.0
1979-07-22 00:03:29.170 ,4,0,0.,12.0,0.,12.0,0.,12.0,0.,12.0
1979-07-22 00:03:41.160 ,4,0,0.,12.0,0.,12.0,0.,12.0,0.,12.0
1979-07-22 00:03:53.170 ,4,0,0.,12.0,0.,12.0,0.,12.0,0.,12.0
1979-07-22 00:04:05.160 ,5,0,0.,12.0,0.,12.0,0.,12.0,0.,12.0
1979-07-22 00:04:17.170 ,5,0,0.,12.0,0.,12.0,0.,12.0,0.,12.0
1979-07-22 00:04:29.170 ,5,0,0.,12.0,0.,12.0,0.,12.0,0.,12.0
1979-07-22 00:04:41.170 ,5,0,0.,12.0,0.,12.0,0.,12.0,0.,12.0
1979-07-22 00:04:53.170 ,6,0,0.,12.0,0.,12.0,0.,12.0,0.,12.0
1979-07-22 00:05:05.170 ,6,0,0.,12.0,0.,12.0,0.,12.0,0.,12.0
1979-07-22 00:05:17.170 ,6,0,0.,12.0,0.,12.0,0.,12.0,0.,12.0
1979-07-22 00:05:29.170 ,6,0,0.,12.0,0.,12.0,0.,12.0,0.,12.0
1979-07-22 00:05:41.170 ,7,0,0.,12.0,0.,12.0,0.,12.0,0.,12.0
1979-07-22 00:05:53.170 ,7,0,0.,12.0,0.,12.0,0.,12.0,0.,12.0
1979-07-22 00:06:05.170 ,7,0,0.,12.0,0.,12.0,0.,12.0,0.,12.0
1979-07-22 00:06:17.170 ,7,0,0.,12.0,0.,12.0,0.,12.0,0.,12.0
1979-07-22 00:06:29.170 ,7,0,0.,12.0,0.,12.0,0.,12.0,0.,12.0
1979-07-22 00:06:41.170 ,7,0,0.,12.0,0.,12.0,0.,12.0,0.,12.0
1979-07-22 00:06:53.170 ,7,0,0.,12.0,0.,12.0,0.,12.0,0.,12.0
1979-07-22 00:07:05.170 ,7,0,0.,12.0,0.,12.0,0.,12.0,0.,12.0
1979-07-22 00:07:17.160 ,6,0,0.,12.0,0.,12.0,0.,12.0,0.,12.0
1979-07-22 00:07:29.160 ,6,0,0.,12.0,0.,12.0,0.,12.0,0.,12.0
1979-07-22 00:07:41.160 ,6,0,1.,12.0,0.,12.0,0.,12.0,0.,12.0
1979-07-22 00:07:53.160 ,6,0,0.,12.0,0.,12.0,0.,12.0,0.,12.0
1979-07-22 00:08:05.160 ,5,0,0.,12.0,0.,12.0,0.,12.0,0.,12.0
1979-07-22 00:08:17.160 ,5,0,0.,12.0,0.,12.0,0.,12.0,0.,12.0
1979-07-22 00:08:29.160 ,5,0,0.,12.0,0.,12.0,0.,12.0,0.,12.0
1979-07-22 00:08:41.160 ,5,0,0.,12.0,0.,12.0,0.,12.0,0.,12.0
1979-07-22 00:08:53.160 ,4,0,0.,12.0,0.,12.0,0.,12.0,0.,12.0
1979-07-22 00:09:05.160 ,4,0,0.,12.0,0.,12.0,0.,12.0,0.,12.0
1979-07-22 00:09:17.160 ,4,0,0.,12.0,0.,12.0,0.,12.0,0.,12.0
1979-07-22 00:09:29.160 ,4,0,0.,12.0,0.,12.0,0.,12.0,0.,12.0
1979-07-22 00:09:41.160 ,3,0,0.,12.0,0.,12.0,0.,12.0,0.,12.0
1979-07-22 00:09:53.160 ,3,0,1.,12.0,0.,12.0,0.,12.0,0.,12.0
1979-07-22 00:10:05.160 ,3,0,0.,12.0,0.,12.0,0.,12.0,0.,12.0
1979-07-22 00:10:17.160 ,3,0,0.,12.0,0.,12.0,0.,12.0,0.,12.0
1979-07-22 00:10:29.160 ,2,0,0.,12.0,0.,12.0,0.,12.0,0.,12.0
1979-07-22 00:10:41.160 ,2,0,0.,12.0,0.,12.0,0.,12.0,0.,12.0
1979-07-22 00:10:53.160 ,2,0,0.,12.0,0.,12.0,0.,12.0,0.,12.0
1979-07-22 00:11:05.160 ,2,0,0.,12.0,0.,12.0,0.,12.0,0.,12.0
1979-07-22 00:11:17.160 ,1,0,0.,12.0,0.,12.0,0.,12.0,0.,12.0
1979-07-22 00:11:29.160 ,1,0,0.,12.0,0.,12.0,0.,12.0,0.,12.0
1979-07-22 00:11:41.160 ,1,0,0.,12.0,0.,12.0,0.,12.0,0.,12.0
1979-07-22 00:11:53.160 ,1,0,0.,12.0,0.,12.0,0.,12.0,0.,12.0
1979-07-22 00:12:05.160 ,0,0,0.,12.0,0.,12.0,0.,12.0,0.,12.0
1979-07-22 00:12:17.160 ,0,0,0.,12.0,0.,12.0,0.,12.0,0.,12.0
1979-07-22 00:12:29.160 ,0,0,0.,12.0,0.,12.0,0.,12.0,0.,12.0
1979-07-22 00:12:41.160 ,0,0,0.,12.0,0.,12.0,0.,12.0,0.,12.0
1979-07-22 00:12:53.160 ,0,0,0.,12.0,0.,12.0,0.,12.0,0.,12.0
1979-07-22 00:13:05.160 ,0,0,0.,12.0,0.,12.0,0.,12.0,0.,12.0
1979-07-22 00:13:17.160 ,0,0,0.,12.0,0.,12.0,0.,12.0,0.,12.0
1979-07-22 00:13:29.160 ,0,0,0.,12.0,0.,12.0,0.,12.0,0.,12.0
1979-07-22 00:13:41.160 ,1,0,0.,12.0,0.,12.0,0.,12.0,0.,12.0
1979-07-22 00:13:53.160 ,1,0,0.,12.0,0.,12.0,0.,12.0,0.,12.0
1979-07-22 00:14:05.160 ,1,0,0.,12.0,0.,12.0,0.,12.0,0.,12.0
1979-07-22 00:14:17.160 ,1,0,0.,12.0,0.,12.0,0.,12.0,0.,12.0
1979-07-22 00:14:29.160 ,2,0,0.,12.0,0.,12.0,0.,12.0,0.,12.0
1979-07-22 00:14:41.160 ,2,0,0.,12.0,0.,12.0,0.,12.0,0.,12.0
1979-07-22 00:14:53.160 ,2,0,0.,12.0,0.,12.0,0.,12.0,0.,12.0
1979-07-22 00:15:05.160 ,2,0,0.,12.0,0.,12.0,0.,12.0,0.,12.0
1979-07-22 00:15:17.160 ,3,0,0.,12.0,0.,12.0,0.,12.0,0.,12.0
1979-07-22 00:15:29.160 ,3,0,0.,12.0,0.,12.0,0.,12.0,0.,12.0
1979-07-22 00:15:41.160 ,3,0,0.,12.0,0.,12.0,0.,12.0,0.,12.0
1979-07-22 00:15:53.160 ,3,0,0.,12.0,0.,12.0,0.,12.0,0.,12.0
1979-07-22 00:16:05.160 ,4,0,1.,12.0,0.,12.0,0.,12.0,0.,12.0
1979-07-22 00:16:17.160 ,4,0,0.,12.0,0.,12.0,0.,12.0,0.,12.0
1979-07-22 00:16:29.160 ,4,0,0.,12.0,0.,12.0,0.,12.0,0.,12.0
1979-07-22 00:16:41.160 ,4,0,0.,12.0,0.,12.0,0.,12.0,0.,12.0
1979-07-22 00:16:53.160 ,5,0,0.,12.0,0.,12.0,0.,12.0,0.,12.0
1979-07-22 00:17:05.160 ,5,0,0.,12.0,0.,12.0,0.,12.0,0.,12.0
1979-07-22 00:17:17.160 ,5,0,0.,12.0,0.,12.0,0.,12.0,0.,12.0
1979-07-22 00:17:29.160 ,5,0,0.,12.0,0.,12.0,0.,12.0,0.,12.0
1979-07-22 00:17:41.160 ,6,0,0.,12.0,0.,12.0,0.,12.0,0.,12.0
1979-07-22 00:17:53.160 ,6,0,0.,12.0,0.,12.0,0.,12.0,0.,12.0
1979-07-22 00:18:05.160 ,6,0,0.,12.0,0.,12.0,0.,12.0,0.,12.0
1979-07-22 00:18:17.160 ,6,0,0.,12.0,0.,12.0,0.,12.0,0.,12.0
1979-07-22 00:18:29.160 ,7,0,0.,12.0,0.,12.0,0.,12.0,0.,12.0
1979-07-22 00:18:41.160 ,7,0,0.,12.0,0.,12.0,0.,12.0,0.,12.0
1979-07-22 00:18:53.160 ,7,0,0.,12.0,0.,12.0,0.,12.0,0.,12.0
1979-07-22 00:19:05.160 ,7,0,0.,12.0,0.,12.0,0.,12.0,0.,12.0
1979-07-22 00:19:17.160 ,3,1,0.,12.0,0.,12.0,0.,12.0,0.,12.0
1979-07-22 00:19:29.160 ,3,1,0.,12.0,0.,12.0,0.,12.0,0.,12.0
1979-07-22 00:19:41.160 ,0,1,0.,12.0,0.,12.0,0.,12.0,0.,12.0
1979-07-22 00:19:53.160 ,0,1,0.,12.0,0.,12.0,0.,12.0,0.,12.0
1979-07-22 00:20:05.160 ,4,1,0.,12.0,0.,12.0,0.,12.0,0.,12.0
1979-07-22 00:20:17.160 ,4,1,0.,12.0,0.,12.0,0.,12.0,0.,12.0
1979-07-22 00:20:29.160 ,7,1,0.,12.0,0.,12.0,0.,12.0,0.,12.0
1979-07-22 00:20:41.160 ,7,1,0.,12.0,0.,12.0,0.,12.0,0.,12.0
1979-07-22 00:20:53.160 ,3,1,0.,12.0,0.,12.0,0.,12.0,0.,12.0
1979-07-22 00:21:05.160 ,3,1,0.,12.0,0.,12.0,0.,12.0,0.,12.0
1979-07-22 00:21:17.160 ,0,1,0.,12.0,0.,12.0,0.,12.0,0.,12.0
1979-07-22 00:21:29.160 ,0,1,0.,12.0,0.,12.0,0.,12.0,0.,12.0
1979-07-22 00:21:41.160 ,4,1,0.,12.0,0.,12.0,0.,12.0,0.,12.0
1979-07-22 00:21:53.160 ,4,1,0.,12.0,0.,12.0,0.,12.0,0.,12.0
1979-07-22 00:22:05.160 ,7,1,0.,12.0,0.,12.0,0.,12.0,0.,12.0
1979-07-22 00:22:17.160 ,7,1,0.,12.0,0.,12.0,0.,12.0,0.,12.0
1979-07-22 00:22:29.160 ,3,1,0.,12.0,0.,12.0,0.,12.0,0.,12.0
1979-07-22 00:22:41.160 ,3,1,0.,12.0,0.,12.0,0.,12.0,0.,12.0
1979-07-22 00:22:53.160 ,0,1,0.,12.0,0.,12.0,0.,12.0,0.,12.0
1979-07-22 00:23:05.160 ,0,1,0.,12.0,0.,12.0,0.,12.0,0.,12.0
1979-07-22 00:23:17.160 ,4,1,0.,12.0,0.,12.0,0.,12.0,0.,12.0
1979-07-22 00:23:29.160 ,4,1,0.,12.0,0.,12.0,0.,12.0,0.,12.0
1979-07-22 00:23:41.160 ,7,1,0.,12.0,0.,12.0,0.,12.0,0.,12.0
1979-07-22 00:23:53.160 ,7,1,0.,12.0,0.,12.0,0.,12.0,0.,12.0
1979-07-22 00:24:05.160 ,3,1,0.,12.0,0.,12.0,0.,12.0,0.,12.0
1979-07-22 00:24:17.160 ,3,1,0.,12.0,0.,12.0,0.,12.0,0.,12.0
1979-07-22 00:24:29.160 ,0,1,0.,12.0,0.,12.0,0.,12.0,0.,12.0
1979-07-22 00:24:41.160 ,0,1,0.,12.0,0.,12.0,0.,12.0,0.,12.0
1979-07-22 00:24:53.160 ,4,1,0.,12.0,0.,12.0,0.,12.0,0.,12.0
1979-07-22 00:25:05.160 ,4,1,0.,12.0,0.,12.0,0.,12.0,0.,12.0
1979-07-22 00:25:17.160 ,7,1,0.,12.0,0.,12.0,0.,12.0,0.,12.0
1979-07-22 00:25:29.160 ,7,1,0.,12.0,0.,12.0,0.,12.0,0.,12.0
1979-07-22 00:25:41.160 ,3,1,0.,12.0,0.,12.0,0.,12.0,0.,12.0
1979-07-22 00:25:53.160 ,3,1,0.,12.0,0.,12.0,0.,12.0,0.,12.0
1979-07-22 00:26:05.160 ,0,1,0.,12.0,0.,12.0,0.,12.0,0.,12.0
1979-07-22 00:26:17.160 ,0,1,0.,12.0,0.,12.0,0.,12.0,0.,12.0
1979-07-22 00:26:29.160 ,4,1,0.,12.0,0.,12.0,0.,12.0,0.,12.0
1979-07-22 00:26:41.160 ,4,1,1.,12.0,0.,12.0,0.,12.0,0.,12.0
1979-07-22 00:26:53.160 ,7,1,0.,12.0,0.,12.0,0.,12.0,0.,12.0
1979-07-22 00:27:05.160 ,7,1,0.,12.0,0.,12.0,0.,12.0,0.,12.0
1979-07-22 00:27:17.160 ,3,1,0.,12.0,0.,12.0,0.,12.0,0.,12.0
1979-07-22 00:27:29.160 ,3,1,0.,12.0,0.,12.0,0.,12.0,0.,12.0
1979-07-22 00:27:41.160 ,0,1,0.,12.0,0.,12.0,0.,12.0,0.,12.0
1979-07-22 00:27:53.160 ,0,1,0.,12.0,0.,12.0,0.,12.0,0.,12.0
1979-07-22 00:28:05.160 ,4,1,0.,12.0,0.,12.0,0.,12.0,0.,12.0
1979-07-22 00:28:17.160 ,4,1,0.,12.0,0.,12.0,0.,12.0,0.,12.0
1979-07-22 00:28:29.160 ,7,1,0.,12.0,0.,12.0,0.,12.0,0.,12.0
1979-07-22 00:28:41.160 ,7,1,0.,12.0,0.,12.0,0.,12.0,0.,12.0
1979-07-22 00:28:53.160 ,3,1,0.,12.0,0.,12.0,0.,12.0,0.,12.0
1979-07-22 00:29:05.160 ,3,1,0.,12.0,0.,12.0,0.,12.0,0.,12.0
1979-07-22 00:29:17.160 ,0,1,0.,12.0,0.,12.0,0.,12.0,0.,12.0
1979-07-22 00:29:29.160 ,0,1,0.,12.0,0.,12.0,0.,12.0,0.,12.0
1979-07-22 00:29:41.160 ,0,0,0.,12.0,0.,12.0,0.,12.0,0.,12.0
1979-07-22 00:29:53.160 ,0,0,0.,12.0,0.,12.0,0.,12.0,0.,12.0
1979-07-22 00:30:05.160 ,0,0,0.,12.0,0.,12.0,0.,12.0,0.,12.0
1979-07-22 00:30:17.160 ,0,0,0.,12.0,0.,12.0,0.,12.0,0.,12.0
1979-07-22 00:30:29.160 ,5,0,0.,12.0,0.,12.0,0.,12.0,0.,12.0
1979-07-22 00:30:41.160 ,5,0,0.,12.0,0.,12.0,0.,12.0,0.,12.0
1979-07-22 00:30:53.160 ,5,0,0.,12.0,0.,12.0,0.,12.0,0.,12.0
1979-07-22 00:31:05.160 ,5,0,0.,12.0,0.,12.0,0.,12.0,0.,12.0
1979-07-22 00:31:17.160 ,4,0,0.,12.0,0.,12.0,0.,12.0,0.,12.0
1979-07-22 00:31:29.160 ,4,0,0.,12.0,0.,12.0,0.,12.0,0.,12.0
1979-07-22 00:31:41.160 ,4,0,0.,12.0,0.,12.0,0.,12.0,0.,12.0
1979-07-22 00:31:53.160 ,4,0,0.,12.0,0.,12.0,0.,12.0,0.,12.0
1979-07-22 00:32:05.160 ,3,0,0.,12.0,0.,12.0,0.,12.0,0.,12.0
1979-07-22 00:32:17.160 ,3,0,0.,12.0,0.,12.0,0.,12.0,0.,12.0
1979-07-22 00:32:29.160 ,3,0,0.,12.0,0.,12.0,0.,12.0,0.,12.0
1979-07-22 00:32:41.160 ,3,0,0.,12.0,0.,12.0,0.,12.0,0.,12.0
1979-07-22 00:32:53.160 ,2,0,0.,12.0,0.,12.0,0.,12.0,0.,12.0
1979-07-22 00:33:05.160 ,2,0,0.,12.0,0.,12.0,0.,12.0,0.,12.0
1979-07-22 00:33:17.160 ,2,0,0.,12.0,0.,12.0,0.,12.0,0.,12.0
1979-07-22 00:33:29.160 ,2,0,0.,12.0,0.,12.0,0.,12.0,0.,12.0
1979-07-22 00:33:41.160 ,1,0,0.,12.0,0.,12.0,0.,12.0,0.,12.0
1979-07-22 00:33:53.160 ,1,0,0.,12.0,0.,12.0,0.,12.0,0.,12.0
1979-07-22 00:34:05.160 ,1,0,0.,12.0,0.,12.0,0.,12.0,0.,12.0
1979-07-22 00:34:17.160 ,1,0,0.,12.0,0.,12.0,0.,12.0,0.,12.0
1979-07-22 00:34:29.160 ,0,0,0.,12.0,0.,12.0,0.,12.0,0.,12.0
1979-07-22 00:34:41.160 ,0,0,0.,12.0,0.,12.0,0.,12.0,0.,12.0
1979-07-22 00:34:53.160 ,0,0,0.,12.0,0.,12.0,0.,12.0,0.,12.0
1979-07-22 00:35:05.160 ,0,0,0.,12.0,0.,12.0,0.,12.0,0.,12.0
1979-07-22 00:35:17.160 ,0,0,0.,12.0,0.,12.0,0.,12.0,0.,12.0
1979-07-22 00:35:29.160 ,0,0,0.,12.0,0.,12.0,0.,12.0,0.,12.0
1979-07-22 00:35:41.160 ,0,0,0.,12.0,0.,12.0,0.,12.0,0.,12.0
1979-07-22 00:35:53.160 ,0,0,0.,12.0,0.,12.0,0.,12.0,0.,12.0
1979-07-22 00:36:05.160 ,1,0,0.,12.0,0.,12.0,0.,12.0,0.,12.0
1979-07-22 00:36:17.160 ,1,0,0.,12.0,0.,12.0,0.,12.0,0.,12.0
1979-07-22 00:36:29.160 ,1,0,0.,12.0,0.,12.0,0.,12.0,0.,12.0
1979-07-22 00:36:41.160 ,1,0,0.,12.0,0.,12.0,0.,12.0,0.,12.0
1979-07-22 00:36:53.160 ,2,0,0.,12.0,0.,12.0,0.,12.0,0.,12.0
1979-07-22 00:37:05.160 ,2,0,0.,12.0,0.,12.0,0.,12.0,0.,12.0
1979-07-22 00:37:17.160 ,2,0,0.,12.0,0.,12.0,0.,12.0,0.,12.0
1979-07-22 00:37:29.160 ,2,0,0.,12.0,0.,12.0,0.,12.0,0.,12.0
1979-07-22 00:37:41.160 ,3,0,0.,12.0,0.,12.0,0.,12.0,0.,12.0
1979-07-22 00:37:53.160 ,3,0,0.,12.0,0.,12.0,0.,12.0,0.,12.0
1979-07-22 00:38:05.160 ,3,0,0.,12.0,0.,12.0,0.,12.0,0.,12.0
1979-07-22 00:38:17.160 ,3,0,0.,12.0,0.,12.0,0.,12.0,0.,12.0
1979-07-22 00:38:29.160 ,4,0,0.,12.0,0.,12.0,0.,12.0,0.,12.0
1979-07-22 00:38:41.160 ,4,0,0.,12.0,0.,12.0,0.,12.0,0.,12.0
1979-07-22 00:38:53.160 ,4,0,0.,12.0,0.,12.0,0.,12.0,0.,12.0
1979-07-22 00:39:05.160 ,4,0,0.,12.0,0.,12.0,0.,12.0,0.,12.0
1979-07-22 00:39:17.160 ,5,0,0.,12.0,0.,12.0,0.,12.0,0.,12.0
1979-07-22 00:39:29.160 ,5,0,0.,12.0,0.,12.0,0.,12.0,0.,12.0
1979-07-22 00:39:41.160 ,5,0,0.,12.0,0.,12.0,0.,12.0,0.,12.0
1979-07-22 00:39:53.160 ,5,0,0.,12.0,0.,12.0,0.,12.0,0.,12.0
1979-07-22 00:40:05.160 ,6,0,0.,12.0,0.,12.0,0.,12.0,0.,12.0
1979-07-22 00:40:17.160 ,6,0,0.,12.0,0.,12.0,0.,12.0,0.,12.0
1979-07-22 00:40:29.160 ,6,0,0.,12.0,0.,12.0,0.,12.0,0.,12.0
1979-07-22 00:40:41.160 ,6,0,0.,12.0,0.,12.0,0.,12.0,0.,12.0
1979-07-22 00:40:53.160 ,7,0,0.,12.0,0.,12.0,0.,12.0,0.,12.0
1979-07-22 00:41:05.160 ,7,0,0.,12.0,0.,12.0,0.,12.0,0.,12.0
1979-07-22 00:41:17.160 ,7,0,0.,12.0,0.,12.0,0.,12.0,0.,12.0
1979-07-22 00:41:29.160 ,7,0,0.,12.0,0.,12.0,0.,12.0,0.,12.0
1979-07-22 00:41:41.160 ,7,0,0.,12.0,0.,12.0,0.,12.0,0.,12.0
1979-07-22 00:41:53.160 ,7,0,0.,12.0,0.,12.0,0.,12.0,0.,12.0
1979-07-22 00:42:05.160 ,7,0,0.,12.0,0.,12.0,0.,12.0,0.,12.0
1979-07-22 00:42:17.160 ,7,0,0.,12.0,0.,12.0,0.,12.0,0.,12.0
1979-07-22 00:42:29.160 ,6,0,0.,12.0,0.,12.0,0.,12.0,0.,12.0
1979-07-22 00:42:41.160 ,6,0,0.,12.0,0.,12.0,0.,12.0,0.,12.0
1979-07-22 00:42:53.160 ,6,0,0.,12.0,0.,12.0,0.,12.0,0.,12.0
1979-07-22 00:43:05.160 ,6,0,0.,12.0,0.,12.0,0.,12.0,0.,12.0
1979-07-22 00:43:17.160 ,5,0,0.,12.0,0.,12.0,0.,12.0,0.,12.0
1979-07-22 00:43:29.160 ,5,0,0.,12.0,0.,12.0,0.,12.0,0.,12.0
1979-07-22 00:43:41.160 ,5,0,0.,12.0,0.,12.0,0.,12.0,0.,12.0
1979-07-22 00:43:53.160 ,5,0,0.,12.0,0.,12.0,0.,12.0,0.,12.0
1979-07-22 00:44:05.160 ,4,0,0.,12.0,0.,12.0,0.,12.0,0.,12.0
1979-07-22 00:44:17.160 ,4,0,0.,12.0,0.,12.0,0.,12.0,0.,12.0
1979-07-22 00:44:29.160 ,4,0,0.,12.0,0.,12.0,0.,12.0,0.,12.0
1979-07-22 00:44:41.160 ,4,0,0.,12.0,0.,12.0,0.,12.0,0.,12.0
1979-07-22 00:44:53.160 ,3,0,0.,12.0,0.,12.0,0.,12.0,0.,12.0
1979-07-22 00:45:05.160 ,3,0,0.,12.0,0.,12.0,0.,12.0,0.,12.0
1979-07-22 00:45:17.160 ,3,0,0.,12.0,0.,12.0,0.,12.0,0.,12.0
1979-07-22 00:45:29.160 ,3,0,0.,12.0,0.,12.0,0.,12.0,0.,12.0
1979-07-22 00:45:41.160 ,2,0,0.,12.0,0.,12.0,0.,12.0,0.,12.0
1979-07-22 00:45:53.160 ,2,0,0.,12.0,0.,12.0,0.,12.0,0.,12.0
1979-07-22 00:46:05.160 ,2,0,0.,12.0,0.,12.0,0.,12.0,0.,12.0
1979-07-22 00:46:17.160 ,2,0,0.,12.0,0.,12.0,0.,12.0,0.,12.0
1979-07-22 00:46:29.160 ,1,0,0.,12.0,0.,12.0,0.,12.0,0.,12.0
1979-07-22 00:46:41.160 ,1,0,0.,12.0,0.,12.0,0.,12.0,0.,12.0
1979-07-22 00:46:53.160 ,1,0,0.,12.0,0.,12.0,0.,12.0,0.,12.0
1979-07-22 00:47:05.160 ,1,0,0.,12.0,0.,12.0,0.,12.0,0.,12.0
1979-07-22 00:47:17.160 ,0,0,0.,12.0,0.,12.0,0.,12.0,0.,12.0
1979-07-22 00:47:29.160 ,0,0,0.,12.0,0.,12.0,0.,12.0,0.,12.0
1979-07-22 00:47:41.160 ,0,0,0.,12.0,0.,12.0,0.,12.0,0.,12.0
1979-07-22 00:47:53.160 ,0,0,0.,12.0,0.,12.0,0.,12.0,0.,12.0
1979-07-22 00:48:05.160 ,0,0,0.,12.0,0.,12.0,0.,12.0,0.,12.0
1979-07-22 00:48:17.160 ,0,0,0.,12.0,0.,12.0,0.,12.0,0.,12.0
1979-07-22 00:48:29.160 ,0,0,0.,12.0,0.,12.0,0.,12.0,0.,12.0
1979-07-22 00:48:41.160 ,0,0,0.,12.0,0.,12.0,0.,12.0,0.,12.0
1979-07-22 00:48:53.160 ,1,0,0.,12.0,0.,12.0,0.,12.0,0.,12.0
1979-07-22 00:49:05.160 ,1,0,0.,12.0,0.,12.0,0.,12.0,0.,12.0
1979-07-22 00:49:17.160 ,1,0,0.,12.0,0.,12.0,0.,12.0,0.,12.0
1979-07-22 00:49:29.160 ,1,0,0.,12.0,0.,12.0,0.,12.0,0.,12.0
1979-07-22 00:49:41.160 ,2,0,0.,12.0,0.,12.0,0.,12.0,0.,12.0
1979-07-22 00:49:53.160 ,2,0,0.,12.0,0.,12.0,0.,12.0,0.,12.0
1979-07-22 00:50:05.160 ,2,0,0.,12.0,0.,12.0,0.,12.0,0.,12.0
1979-07-22 00:50:17.160 ,2,0,0.,12.0,0.,12.0,0.,12.0,0.,12.0
1979-07-22 00:50:29.160 ,3,0,0.,12.0,0.,12.0,0.,12.0,0.,12.0
1979-07-22 00:50:41.160 ,3,0,0.,12.0,0.,12.0,0.,12.0,0.,12.0
1979-07-22 00:50:53.160 ,3,0,0.,12.0,0.,12.0,0.,12.0,0.,12.0
1979-07-22 00:51:05.160 ,3,0,0.,12.0,0.,12.0,0.,12.0,0.,12.0
1979-07-22 00:51:17.160 ,4,0,0.,12.0,0.,12.0,0.,12.0,0.,12.0
1979-07-22 00:51:29.160 ,4,0,0.,12.0,0.,12.0,0.,12.0,0.,12.0
1979-07-22 00:51:41.160 ,4,0,0.,12.0,0.,12.0,0.,12.0,0.,12.0
1979-07-22 00:51:53.160 ,4,0,0.,12.0,0.,12.0,0.,12.0,0.,12.0
1979-07-22 00:52:05.160 ,5,0,0.,12.0,0.,12.0,0.,12.0,0.,12.0
1979-07-22 00:52:17.160 ,5,0,0.,12.0,0.,12.0,0.,12.0,0.,12.0
1979-07-22 00:52:29.160 ,5,0,0.,12.0,0.,12.0,0.,12.0,0.,12.0
1979-07-22 00:52:41.160 ,5,0,0.,12.0,0.,12.0,0.,12.0,0.,12.0
1979-07-22 00:52:53.160 ,6,0,0.,12.0,0.,12.0,0.,12.0,0.,12.0
1979-07-22 00:53:05.160 ,6,0,0.,12.0,0.,12.0,0.,12.0,0.,12.0
1979-07-22 00:53:17.160 ,6,0,0.,12.0,0.,12.0,0.,12.0,0.,12.0
1979-07-22 00:53:29.160 ,6,0,0.,12.0,0.,12.0,0.,12.0,0.,12.0
1979-07-22 00:53:41.160 ,7,0,0.,12.0,0.,12.0,0.,12.0,0.,12.0
1979-07-22 00:53:53.160 ,7,0,0.,12.0,0.,12.0,0.,12.0,0.,12.0
1979-07-22 00:54:05.160 ,7,0,0.,12.0,0.,12.0,0.,12.0,0.,12.0
1979-07-22 00:54:17.160 ,7,0,0.,12.0,0.,12.0,0.,12.0,0.,12.0
1979-07-22 00:54:29.160 ,7,0,0.,12.0,0.,12.0,0.,12.0,0.,12.0
1979-07-22 00:54:41.160 ,7,0,0.,12.0,0.,12.0,0.,12.0,0.,12.0
1979-07-22 00:54:53.160 ,7,0,0.,12.0,0.,12.0,0.,12.0,0.,12.0
1979-07-22 00:55:05.160 ,7,0,0.,12.0,0.,12.0,0.,12.0,0.,12.0
1979-07-22 00:55:17.160 ,6,0,0.,12.0,0.,12.0,0.,12.0,0.,12.0
1979-07-22 00:55:29.160 ,6,0,0.,12.0,0.,12.0,0.,12.0,0.,12.0
1979-07-22 00:55:41.160 ,6,0,0.,12.0,0.,12.0,0.,12.0,0.,12.0
1979-07-22 00:55:53.160 ,6,0,0.,12.0,0.,12.0,0.,12.0,0.,12.0
1979-07-22 00:56:05.160 ,5,0,0.,12.0,0.,12.0,0.,12.0,0.,12.0
1979-07-22 00:56:17.160 ,5,0,0.,12.0,0.,12.0,0.,12.0,0.,12.0
1979-07-22 00:56:29.160 ,5,0,0.,12.0,0.,12.0,0.,12.0,0.,12.0
1979-07-22 00:56:41.160 ,5,0,0.,12.0,0.,12.0,0.,12.0,0.,12.0
1979-07-22 00:56:53.160 ,4,0,0.,12.0,0.,12.0,0.,12.0,0.,12.0
1979-07-22 00:57:05.160 ,4,0,0.,12.0,0.,12.0,0.,12.0,0.,12.0
1979-07-22 00:57:17.160 ,4,0,0.,12.0,0.,12.0,0.,12.0,0.,12.0
1979-07-22 00:57:29.160 ,4,0,0.,12.0,0.,12.0,0.,12.0,0.,12.0
1979-07-22 00:57:41.160 ,3,0,0.,12.0,0.,12.0,0.,12.0,0.,12.0
1979-07-22 00:57:53.160 ,3,0,0.,12.0,0.,12.0,0.,12.0,0.,12.0
1979-07-22 00:58:05.160 ,3,0,0.,12.0,0.,12.0,0.,12.0,0.,12.0
1979-07-22 00:58:17.160 ,3,0,0.,12.0,0.,12.0,0.,12.0,0.,12.0
1979-07-22 00:58:29.160 ,2,0,0.,12.0,0.,12.0,0.,12.0,0.,12.0
1979-07-22 00:58:41.160 ,2,0,0.,12.0,0.,12.0,0.,12.0,0.,12.0
1979-07-22 00:58:53.160 ,2,0,0.,12.0,0.,12.0,0.,12.0,0.,12.0
1979-07-22 00:59:05.160 ,2,0,0.,12.0,0.,12.0,0.,12.0,0.,12.0
1979-07-22 00:59:17.160 ,1,0,0.,12.0,0.,12.0,0.,12.0,0.,12.0
1979-07-22 00:59:29.160 ,1,0,0.,12.0,0.,12.0,0.,12.0,0.,12.0
1979-07-22 00:59:41.160 ,1,0,0.,12.0,0.,12.0,0.,12.0,0.,12.0
1979-07-22 00:59:53.160 ,1,0,0.,12.0,0.,12.0,0.,12.0,0.,12.0
1979-07-22 01:00:05.160 ,0,0,0.,12.0,0.,12.0,0.,12.0,0.,12.0
1979-07-22 01:00:17.160 ,0,0,0.,12.0,0.,12.0,0.,12.0,0.,12.0
1979-07-22 01:00:29.160 ,0,0,0.,12.0,0.,12.0,0.,12.0,0.,12.0
1979-07-22 01:00:41.160 ,0,0,0.,12.0,0.,12.0,0.,12.0,0.,12.0
1979-07-22 01:00:53.160 ,0,0,0.,12.0,0.,12.0,0.,12.0,0.,12.0
1979-07-22 01:01:05.160 ,0,0,0.,12.0,0.,12.0,0.,12.0,0.,12.0
1979-07-22 01:01:17.160 ,0,0,0.,12.0,0.,12.0,0.,12.0,0.,12.0
1979-07-22 01:01:29.160 ,0,0,0.,12.0,0.,12.0,0.,12.0,0.,12.0
1979-07-22 01:01:41.160 ,1,0,0.,12.0,0.,12.0,0.,12.0,0.,12.0
1979-07-22 01:01:53.160 ,1,0,0.,12.0,0.,12.0,0.,12.0,0.,12.0
1979-07-22 01:02:05.160 ,1,0,0.,12.0,0.,12.0,0.,12.0,0.,12.0
1979-07-22 01:02:17.160 ,1,0,0.,12.0,0.,12.0,0.,12.0,0.,12.0
1979-07-22 01:02:29.160 ,2,0,0.,12.0,0.,12.0,0.,12.0,0.,12.0
1979-07-22 01:02:41.160 ,2,0,0.,12.0,0.,12.0,0.,12.0,0.,12.0
1979-07-22 01:02:53.160 ,2,0,0.,12.0,0.,12.0,0.,12.0,0.,12.0
1979-07-22 01:03:05.160 ,2,0,0.,12.0,0.,12.0,0.,12.0,0.,12.0
1979-07-22 01:03:17.160 ,3,0,0.,12.0,0.,12.0,0.,12.0,0.,12.0
1979-07-22 01:03:29.160 ,3,0,0.,12.0,0.,12.0,0.,12.0,0.,12.0
1979-07-22 01:03:41.160 ,3,0,0.,12.0,0.,12.0,0.,12.0,0.,12.0
1979-07-22 01:03:53.160 ,3,0,0.,12.0,0.,12.0,0.,12.0,0.,12.0
1979-07-22 01:04:05.160 ,4,0,0.,12.0,0.,12.0,0.,12.0,0.,12.0
1979-07-22 01:04:17.160 ,4,0,1.,12.0,0.,12.0,0.,12.0,0.,12.0
1979-07-22 01:04:29.160 ,4,0,0.,12.0,0.,12.0,0.,12.0,0.,12.0
1979-07-22 01:04:41.160 ,4,0,0.,12.0,0.,12.0,0.,12.0,0.,12.0
1979-07-22 01:04:53.160 ,5,0,0.,12.0,0.,12.0,0.,12.0,0.,12.0
1979-07-22 01:05:05.160 ,5,0,0.,12.0,0.,12.0,0.,12.0,0.,12.0
1979-07-22 01:05:17.160 ,5,0,0.,12.0,0.,12.0,0.,12.0,0.,12.0
1979-07-22 01:05:29.160 ,5,0,0.,12.0,0.,12.0,0.,12.0,0.,12.0
1979-07-22 01:05:41.160 ,6,0,0.,12.0,0.,12.0,0.,12.0,0.,12.0
1979-07-22 01:05:53.160 ,6,0,0.,12.0,0.,12.0,0.,12.0,0.,12.0
1979-07-22 01:06:05.160 ,6,0,0.,12.0,0.,12.0,0.,12.0,0.,12.0
1979-07-22 01:06:17.160 ,6,0,0.,12.0,0.,12.0,0.,12.0,0.,12.0
1979-07-22 01:06:29.160 ,7,0,0.,12.0,0.,12.0,0.,12.0,0.,12.0
1979-07-22 01:06:41.160 ,7,0,0.,12.0,0.,12.0,0.,12.0,0.,12.0
1979-07-22 01:06:53.160 ,7,0,0.,12.0,0.,12.0,0.,12.0,0.,12.0
1979-07-22 01:07:05.160 ,7,0,0.,12.0,0.,12.0,0.,12.0,0.,12.0
1979-07-22 01:07:17.160 ,3,1,0.,12.0,0.,12.0,0.,12.0,0.,12.0
1979-07-22 01:07:29.160 ,3,1,0.,12.0,0.,12.0,0.,12.0,0.,12.0
1979-07-22 01:07:41.160 ,0,1,0.,12.0,0.,12.0,0.,12.0,0.,12.0
1979-07-22 01:07:53.160 ,0,1,0.,12.0,0.,12.0,0.,12.0,0.,12.0
1979-07-22 01:08:05.160 ,4,1,0.,12.0,0.,12.0,0.,12.0,0.,12.0
1979-07-22 01:08:17.160 ,4,1,0.,12.0,0.,12.0,0.,12.0,0.,12.0
1979-07-22 01:08:29.160 ,7,1,0.,12.0,0.,12.0,0.,12.0,0.,12.0
1979-07-22 01:08:41.160 ,7,1,0.,12.0,0.,12.0,0.,12.0,0.,12.0
1979-07-22 01:08:53.160 ,3,1,0.,12.0,0.,12.0,0.,12.0,0.,12.0
1979-07-22 01:09:05.160 ,3,1,0.,12.0,0.,12.0,0.,12.0,0.,12.0
1979-07-22 01:09:17.160 ,0,1,0.,12.0,0.,12.0,0.,12.0,0.,12.0
1979-07-22 01:09:29.160 ,0,1,0.,12.0,0.,12.0,0.,12.0,0.,12.0
1979-07-22 01:09:41.160 ,4,1,0.,12.0,0.,12.0,0.,12.0,0.,12.0
1979-07-22 01:09:53.160 ,4,1,0.,12.0,0.,12.0,0.,12.0,0.,12.0
1979-07-22 01:10:05.160 ,7,1,0.,12.0,0.,12.0,0.,12.0,0.,12.0
1979-07-22 01:10:17.160 ,7,1,0.,12.0,0.,12.0,0.,12.0,0.,12.0
1979-07-22 01:10:29.160 ,3,1,0.,12.0,0.,12.0,0.,12.0,0.,12.0
1979-07-22 01:10:41.160 ,3,1,0.,12.0,0.,12.0,0.,12.0,0.,12.0
1979-07-22 01:10:53.160 ,0,1,0.,12.0,0.,12.0,0.,12.0,0.,12.0
1979-07-22 01:11:05.160 ,0,1,0.,12.0,0.,12.0,0.,12.0,0.,12.0
1979-07-22 01:11:17.160 ,4,1,0.,12.0,0.,12.0,0.,12.0,0.,12.0
1979-07-22 01:11:29.160 ,4,1,0.,12.0,0.,12.0,0.,12.0,0.,12.0
1979-07-22 01:11:41.160 ,7,1,0.,12.0,0.,12.0,0.,12.0,0.,12.0
1979-07-22 01:11:53.160 ,7,1,0.,12.0,0.,12.0,0.,12.0,0.,12.0
1979-07-22 01:12:05.160 ,3,1,0.,12.0,0.,12.0,0.,12.0,0.,12.0
1979-07-22 01:12:17.160 ,3,1,0.,12.0,0.,12.0,0.,12.0,0.,12.0
1979-07-22 01:12:29.160 ,0,1,0.,12.0,0.,12.0,0.,12.0,0.,12.0
1979-07-22 01:12:41.160 ,0,1,0.,12.0,0.,12.0,0.,12.0,0.,12.0
1979-07-22 01:12:53.160 ,4,1,0.,12.0,0.,12.0,0.,12.0,0.,12.0
1979-07-22 01:13:05.160 ,4,1,0.,12.0,0.,12.0,0.,12.0,0.,12.0
1979-07-22 01:13:17.160 ,7,1,0.,12.0,0.,12.0,0.,12.0,0.,12.0
1979-07-22 01:13:29.160 ,7,1,0.,12.0,0.,12.0,0.,12.0,0.,12.0
1979-07-22 01:13:41.160 ,3,1,0.,12.0,0.,12.0,0.,12.0,0.,12.0
1979-07-22 01:13:53.160 ,3,1,0.,12.0,0.,12.0,0.,12.0,0.,12.0
1979-07-22 01:14:05.160 ,0,1,0.,12.0,0.,12.0,0.,12.0,0.,12.0
1979-07-22 01:14:17.160 ,0,1,0.,12.0,0.,12.0,0.,12.0,0.,12.0
1979-07-22 01:14:29.160 ,4,1,0.,12.0,0.,12.0,0.,12.0,0.,12.0
1979-07-22 01:14:41.160 ,4,1,0.,12.0,0.,12.0,0.,12.0,0.,12.0
1979-07-22 01:14:53.160 ,7,1,0.,12.0,0.,12.0,0.,12.0,0.,12.0
1979-07-22 01:15:05.160 ,7,1,0.,12.0,0.,12.0,0.,12.0,0.,12.0
1979-07-22 01:15:17.160 ,3,1,0.,12.0,0.,12.0,0.,12.0,0.,12.0
1979-07-22 01:15:29.160 ,3,1,0.,12.0,0.,12.0,0.,12.0,0.,12.0
1979-07-22 01:15:41.160 ,0,1,0.,12.0,0.,12.0,0.,12.0,0.,12.0
1979-07-22 01:15:53.160 ,0,1,0.,12.0,0.,12.0,0.,12.0,0.,12.0
1979-07-22 01:16:05.160 ,4,1,0.,12.0,0.,12.0,0.,12.0,0.,12.0
1979-07-22 01:16:17.160 ,4,1,0.,12.0,0.,12.0,0.,12.0,0.,12.0
1979-07-22 01:16:29.160 ,7,1,0.,12.0,0.,12.0,0.,12.0,0.,12.0
1979-07-22 01:16:41.160 ,7,1,0.,12.0,0.,12.0,0.,12.0,0.,12.0
1979-07-22 01:16:53.160 ,3,1,0.,12.0,0.,12.0,0.,12.0,0.,12.0
1979-07-22 01:17:05.160 ,3,1,0.,12.0,0.,12.0,0.,12.0,0.,12.0
1979-07-22 01:17:17.160 ,0,1,0.,12.0,0.,12.0,0.,12.0,0.,12.0
1979-07-22 01:17:29.160 ,0,1,0.,12.0,0.,12.0,0.,12.0,0.,12.0